Weather in Calais

France     50°57′17″N   1°52′32″E
temp.,
°C
wind,
m/s
gust,
m/s
humid.,
%
clouds,
%
prec.,
mm/h
press.,
hPa
HPBL,
m
8 august, mon
mon823:00+17e45715 0.0 1025199
02:00+16e23785 0.0 1025119
05:00+15e23795 0.0 1025123
08:00+17ene34719 0.0 1026248
11:00+20ne55615 0.0 1027703
14:00+21nne66615 0.0 1026666
17:00+20ne66615 0.0 1026579
20:00+20ne68695 0.0 1026467
9 august, tue
tue923:00+18ne69815 0.0 1027353
02:00+18ene58845 0.0 1027274
05:00+16e46834 0.0 1027174
08:00+18ene47775 0.0 1028385
11:00+20ne78671 0.0 1028693
14:00+21ne78600 0.0 1028596
17:00+21nne89680 0.0 1027504
20:00+20ne812770 0.0 1026367
10 august, wed
wed1023:00+19ne813820 0.0 1026330
02:00+19ene712850 0.0 1026311
05:00+18e58790 0.0 1025202
08:00+18e59735 0.0 1026269
11:00+22ene78572 0.0 1025416
14:00+22ne89651 0.0 1024421
17:00+22nne911687 0.0 1023383
20:00+21ne712744 0.0 1022304
11 august, thu
thu1123:00+20ne713835 0.0 1022249
02:00+20ene610833 0.0 1021196
05:00+18e45715 0.0 102189
08:00+19ene46640 0.0 1021137
11:00+23ne56510 0.0 1020303
14:00+23nne88610 0.0 1020353
17:00+23nne811610 0.0 1018320
20:00+22ne713703 0.0 1018262
12 august, fri
fri1223:00+21ne613740 0.0 1017222
02:00+20e34800 0.0 101742
05:00+20e225933 0.0 101615
08:00+20e33535 0.0 101663
11:00+25ne45435 0.0 1016301
14:00+24nne77550 0.0 1015477
17:00+24nne7115657 0.0 1014293
20:00+23ne713665 0.0 1013239